Regional Weather Roundup
Issued by NWS Mt. Holly, NJ

Home | Current Version | Previous Version | Text Only | Print | Product List | Glossary On
Versions: 1 2 3 4 5 6 7 8 9 10 11 12 13 14 15 16 17 18 19 20 21 22 23 24 25 26 27 28 29 30 31 32 33 34 35 36 37 38 39 40 41 42 43 44 45 46 47 48 49 50
000
ASUS41 KPHI 211810
RWRPHI

REGIONAL WEATHER ROUNDUP
NATIONAL WEATHER SERVICE MOUNT HOLLY NJ
200 PM EDT TUE OCT 21 2014

NOTE:  "FAIR" INDICATES FEW OR NO CLOUDS BELOW 12,000 FEET WITH NO
SIGNIFICANT WEATHER AND/OR OBSTRUCTIONS TO VISIBILITY.

 * = STATION DOES NOT REPORT PRECIPITATION (E.G. RAIN, SNOW, ETC.)
        OR FOG.

NJZ015>026-211900-
SOUTHERN NEW JERSEY

CITY           SKY/WX    TMP DP  RH WIND       PRES   REMARKS
POMONA         MOSUNNY   68  53  58 SW7       29.81F
6HR MIN TEMP:  51; 6HR MAX TEMP:  69;

RIO GRANDE*    MOSUNNY   66  50  55 W5        29.83F
MILLVILLE      PTSUNNY   69  49  48 CALM      29.81F
WRIGHTSTOWN    PTSUNNY   67  51  57 W5        29.80F
MOUNT HOLLY    MOSUNNY   67  49  52 CALM      29.81F
TRENTON        SUNNY     67  49  52 CALM      29.81F
6HR MIN TEMP:  50; 6HR MAX TEMP:  67;


$$
NJZ001>014-211900-
NORTHERN NEW JERSEY

CITY           SKY/WX    TMP DP  RH WIND       PRES   REMARKS
SUSSEX         CLOUDY    58  50  75 NE10      29.86F
ANDOVER*         N/A     61  49  64 VRB3      29.84F
MORRISTOWN     PTSUNNY   64  50  59 N7        29.84F
NEWARK         PTSUNNY   65  52  62 SE9       29.84F
TETERBORO      LGT RAIN  65  48  54 CALM      29.83F
CALDWELL       CLOUDY    64  49  57 VRB3      29.84F
SOMERVILLE     MOSUNNY   68  49  50 CALM      29.81F
ALLAIRE*       CLOUDY    61  52  72 N5        29.82F
TOMS RIVER*    CLOUDY    63  55  77 CALM      29.82F

$$
PAZ043-044-047-054-055-060>062-066>071-211900-
EASTERN PENNSYLVANIA

CITY           SKY/WX    TMP DP  RH WIND       PRES   REMARKS
PHILADELPHIA   MOSUNNY   68  46  45 W5        29.82F
6HR MIN TEMP:  54; 6HR MAX TEMP:  69;

NORTH PHILA    SUNNY     69  45  41 SW6       29.83F
BLUE BELL      SUNNY     68  46  45 CALM      29.81F
DOYLESTOWN     MOSUNNY   64  50  60 SE3       29.81F
QUAKERTOWN*    PTSUNNY   64  50  59 N3        29.83F
POTTSTOWN      CLOUDY    65  47  52 NW6       29.84F
LANCASTER      PTSUNNY   62  49  62 N7        29.83F
COATESVILLE    MOSUNNY   63  48  59 NW7       29.84F
READING        MOSUNNY   64  49  57 CALM      29.82F
6HR MIN TEMP:  51; 6HR MAX TEMP:  65;

ALLENTOWN      CLOUDY    64  48  56 CALM      29.83F
6HR MIN TEMP:  50; 6HR MAX TEMP:  64;

MOUNT POCONO   CLOUDY    54  47  77 SE8       29.85F
6HR MIN TEMP:  48; 6HR MAX TEMP:  54;

HAZLETON       CLOUDY    55  46  71 N5        29.86F
WILKES BARRE   CLOUDY    59  47  64 W5        29.83F

$$
DEZALL-MDZ008-012-015-019-020-211900-
DELAWARE AND EASTERN MARYLAND

CITY           SKY/WX    TMP DP  RH WIND       PRES   REMARKS
WILMINGTON     CLOUDY    68  50  52 SE3       29.82F
6HR MIN TEMP:  49; 6HR MAX TEMP:  68;

DOVER          SUNNY     68  52  56 E6        29.80F
GEORGETOWN     MOSUNNY   71  48  43 VRB6      29.82F
6HR MIN TEMP:  56; 6HR MAX TEMP:  72; 6HR PCP: TRACE;

EASTON         MOSUNNY   72  48  43 NW5       29.85F
PATUXENT       MOSUNNY   68  44  42 NE9       29.82F
OCEAN CITY     MOSUNNY   70  56  61 S5        29.81F
WALLOPS ISLAND SUNNY     72  51  47 W8        29.82F
CAMBRIDGE      SUNNY     72  50  46 NW3       29.82F
SALISBURY      SUNNY     73  50  44 W6        29.81F

$$
PAZ001-021-NYZ056-072-MDZ011-DCZ001-211900-
OTHER NEARBY LOCATIONS

CITY           SKY/WX    TMP DP  RH WIND       PRES   REMARKS
HARRISBURG     PTSUNNY   63  49  60 W6        29.83F
STATE COLLEGE  RAIN      54  50  87 CALM      29.85S
WILLIAMSPORT   CLOUDY    57  46  66 CALM      29.84F
BINGHAMTON     LGT RAIN  52  46  80 SW5       29.85S
NEW YORK CITY  CLOUDY    65  49  56 VRB3      29.86F
BALTIMORE      MOSUNNY   68  48  48 W9        29.81F
WASHINGTON DC  MOSUNNY   72  45  37 CALM      29.82F

$$



USA.gov is the U.S. government's official web portal to all federal, state and local government web resources and services.